sat.trackr.live / text

‹ back to catalog

MINXSS-2

NORAD 43758 · 2018-099A

PAYLOAD ACTIVE UNKNOWN

§ Identity

Operator
Country
US
Launch date
2018-12-03
Launch site
AFWTR
Launch vehicle
Mass (kg)
RCS (m²)

External: N2YO · Heavens-Above · Gunter

§ Orbital elements

Epoch: 2026-09-12T04:27:32.368320Z

Period
92.72 min
Inclination
97.4456°
Eccentricity
0.0005116
Mean motion
15.53048576 rev/d
Perigee alt
404.4 km
Apogee alt
411.3 km
Semi-major
6,786.0 km
B*
5.6195e-4
RAAN
334.3741°
Arg perigee
302.1548°
Mean anomaly
57.9208°
Rev number
42,760

§ Raw data

MINXSS-21 43758U 18099A   26255.18579130  .00035120  00000+0  56195-3 0  99972 43758  97.4456 334.3741 0005116 302.1548  57.9208 15.53048576427609

JSON: /api/v1/satellites/43758 · /tle

For live sub-satellite position, see the globe view (requires WebGL).

§ Visibility from observer

Set your observer location to see the next 7 days of passes ≥ 10°. The values pass through the URL so the page stays shareable.

No JS? Fill the form by hand. The geolocation button needs JavaScript.

§ Radio — SatNOGS DB

ModeDescriptionDownlinkUplink
GMSK Secondary 437.250 MHz
GMSK GMSK9k6 (inactive) 437.250 MHz

2 transmitters · refreshed weekly from db.satnogs.org